{"data":{"norad_id":56413,"epoch":"2026-05-25T05:15:43.135200Z","epoch_age_seconds":46149,"freshness":"FRESH","line1":"1 56413U 23061AR  26145.21924925  .00000055  00000+0  11518-4 0  9992","line2":"2 56413  43.0005 115.2758 0000647 291.0715  69.0067 15.27572959168571","mean_motion":15.27572959,"eccentricity":6.47e-5,"inclination_deg":43.0005,"raan_deg":115.2758,"arg_perigee_deg":291.0715,"mean_anomaly_deg":69.0067,"bstar":1.1518e-5,"rev_number":16857,"period_min":94.267183214782,"perigee_km":482.62625930311,"apogee_km":483.51409951213,"semimajor_km":6861.2071794076,"source":"CELESTRAK","updated_at":"2026-05-25T13:38:18.061378Z"}}